User: anonymous   Login
Location: Unspecified
(0.0000°N, 0.0000°E)
Time: 18:03:54
(UTC+00:00)
Language:

CANX 3A (UNIBRITE) - Orbit

View from above orbital plane
View from above orbital plane
View from above satellite
View from above satellite

Ground track
Ground track

The orbit data is extracted from the following two-line orbital elements,

1 39092U 13009G   14331.46478542  .00000273  00000-0  11232-3 0  5426
2 39092 098.6106 165.5327 0009691 178.2880 181.8340 14.34647900 91736
Epoch (UTC): 27 November 2014 11:09:17
Eccentricity: 0.0009691
inclination: 98.6106°
perigee height: 769 km
apogee height: 783 km
right ascension of ascending node: 165.5327°
argument of perigee: 178.2880°
revolutions per day: 14.34647900
mean anomaly at epoch: 181.8340°
orbit number at epoch: 9173

The dashed part of the orbit path shows where the satellite is in the earth's shadow,  

DLR